Location: Arezzo
(43.4170°N, 11.8830°E)
Time: 19:52:49
(UTC+02:00)

ISS - Visible Passes

Search period start: 24 June 2024 00:00
Search period end: 04 July 2024 00:00
Orbit: 410 x 425 km, 51.6° (Epoch: 24 June)

Date Brightness Start Highest point End Pass type
(mag) Time Alt. Az. Time Alt. Az. Time Alt. Az.
24 Jun -3.5 04:35:01 13° SW 04:37:53 60° SE 04:41:12 10° ENE visible
25 Jun -2.8 03:48:41 26° S 03:49:52 35° SE 03:52:57 10° ENE visible
26 Jun -2.0 03:02:17 21° SE 03:02:17 21° SE 03:04:29 10° E visible
26 Jun -3.3 04:35:11 10° WSW 04:38:24 55° NNW 04:41:42 10° NE visible
27 Jun -3.8 03:48:41 29° WSW 03:50:13 86° NNW 03:53:33 10° ENE visible
28 Jun -3.6 03:02:07 57° SE 03:02:07 57° SE 03:05:20 10° ENE visible
28 Jun -2.1 04:36:00 10° W 04:38:58 29° NNW 04:41:58 10° NE visible
29 Jun -1.8 02:15:29 21° E 02:15:29 21° E 02:16:56 10° ENE visible
29 Jun -2.6 03:48:21 16° W 03:50:37 39° NNW 03:53:47 10° NE visible
30 Jun -3.3 03:01:38 46° WNW 03:02:17 57° NNW 03:05:35 10° NE visible
30 Jun -1.4 04:36:54 10° WNW 04:39:33 21° N 04:42:12 10° NE visible
01 Jul -2.9 02:14:51 46° ENE 02:14:51 46° ENE 02:17:19 10° ENE visible
01 Jul -1.6 03:48:16 10° WNW 03:51:04 24° NNW 03:53:52 10° NE visible
02 Jul -1.4 01:27:58 18° ENE 01:27:58 18° ENE 01:28:56 10° ENE visible
02 Jul -2.0 03:00:50 19° WNW 03:02:35 30° NNW 03:05:35 10° NE visible
02 Jul -1.1 04:37:32 10° NW 04:40:03 19° N 04:42:34 10° NE visible
03 Jul -2.7 02:13:53 40° NW 02:14:06 40° NNW 02:17:17 10° NE visible
03 Jul -1.1 03:48:56 10° NW 03:51:28 20° N 03:54:01 10° NE visible
